Regional Weather Roundup
Issued by NWS Little Rock, AR

Home | Current Version | Previous Version | Graphics & Text | Print | Product List | Glossary On
Versions: 1 2 3 4 5 6 7 8 9 10 11 12 13 14 15 16 17 18 19 20 21 22 23 24 25 26 27 28 29 30 31 32 33 34 35 36 37 38 39 40 41 42 43 44 45 46 47
000
ASUS44 KLZK 070005
RWRLZK

WEATHER ROUNDUP FOR ARKANSAS
NATIONAL WEATHER SERVICE LITTLE ROCK AR
700 PM CDT MON JUL 06 2015

NOTE: "FAIR" INDICATES FEW OR NO CLOUDS BELOW 12,000 FEET WITH NO
SIGNIFICANT WEATHER AND/OR OBSTRUCTIONS TO VISIBILITY.

ARZ001-003-010-029-070100-
NORTHWEST ARKANSAS

CITY           SKY/WX    TMP DP  RH WIND       PRES   REMARKS
FAYETTEVILLE   MOSUNNY   80  72  76 S12       29.94F
6HR MIN TEMP:  80; 6HR MAX TEMP:  84;

FORT SMITH     PTSUNNY   86  70  58 S8        29.91S HX  90
6HR MIN TEMP:  84; 6HR MAX TEMP:  88;

HARRISON       PTSUNNY   79  72  79 S10       29.97S
6HR MIN TEMP:  79; 6HR MAX TEMP:  84;

BENTONVILLE    MOSUNNY   82  70  65 SW7       29.95R HX  86
6HR MIN TEMP:  81; 6HR MAX TEMP:  84;

ROGERS         MOSUNNY   82  72  71 S15       29.96F HX  87
6HR MIN TEMP:  80; 6HR MAX TEMP:  86;

SILOAM SPGS    MOSUNNY   81  70  69 S9G17     29.95R
6HR MIN TEMP:  81; 6HR MAX TEMP:  84;

HIGHFILL       PTSUNNY   82  74  76 S8        29.94F HX  88
6HR MIN TEMP:  81; 6HR MAX TEMP:  85;

SPRINGDALE     PTSUNNY   82  72  69 SW10G20   29.96F HX  87
$$

ARZ004-005-016-070100-
NORTH CENTRAL ARKANSAS

CITY           SKY/WX    TMP DP  RH WIND       PRES   REMARKS
BATESVILLE     PTSUNNY   81  75  83 SE6       29.96R HX  86
6HR MIN TEMP:  81; 6HR MAX TEMP:  88; 6HR PCP:  0.01;

FLIPPIN          N/A     84  72  65 S6        29.94R HX  89
6HR MIN TEMP:  84; 6HR MAX TEMP:  88;

MTN HOME       CLOUDY    82  73  74 S5        29.96R HX  87
6HR MIN TEMP:  81; 6HR MAX TEMP:  86;

$$

ARZ040-041-070100-
WEST CENTRAL ARKANSAS

CITY           SKY/WX    TMP DP  RH WIND       PRES   REMARKS
MENA           MOSUNNY   86  72  62 S6        29.95F HX  92
MOUNT IDA      MOSUNNY   85  72  65 CALM      29.93F HX  91
6HR MIN TEMP:  79; 6HR MAX TEMP:  86; 6HR PCP:  0.03;

$$

ARZ009-017-025-026-028-070100-
NORTHEAST ARKANSAS

CITY           SKY/WX    TMP DP  RH WIND       PRES   REMARKS
JONESBORO      PTSUNNY   84  73  69 S14       29.96F HX  90
6HR MIN TEMP:  83; 6HR MAX TEMP:  87;

NEWPORT        RAIN      81  77  89 W9        29.97S FOG     HX  88
6HR MIN TEMP:  80; 6HR MAX TEMP:  89; 6HR PCP:  0.09;

WALNUT RIDGE   CLOUDY    82  73  74 S15       29.95R HX  88
6HR MIN TEMP:  82; 6HR MAX TEMP:  88;

BLYTHEVILLE    PTSUNNY   84  75  74 S12       29.97F HX  92
6HR MIN TEMP:  82; 6HR MAX TEMP:  86;

$$

ARZ022-023-033-042-044-070100-
CENTRAL ARKANSAS

CITY           SKY/WX    TMP DP  RH WIND       PRES   REMARKS
LITTLE ROCK    PTSUNNY   87  72  60 S9        29.95F HX  93
6HR MIN TEMP:  86; 6HR MAX TEMP:  90;

N LITTLE ROCK  PTSUNNY   86  75  70 SW12G17   29.95F HX  95
6HR MIN TEMP:  85; 6HR MAX TEMP:  88;

JACKSONVILLE   PTSUNNY   86  74  68 S7        29.95S HX  94
6HR MIN TEMP:  85; 6HR MAX TEMP:  89; 6HR PCP: TRACE;

SEARCY         CLOUDY    84  76  76 SW6       29.96F HX  93
6HR MIN TEMP:  81; 6HR MAX TEMP:  88; 6HR PCP:  0.10;

HOT SPRINGS    PTSUNNY   86  72  62 S10       29.95F HX  92
6HR MIN TEMP:  81; 6HR MAX TEMP:  88; 6HR PCP:  0.01;

RUSSELLVILLE   CLOUDY    85  72  65 SW5       29.95R HX  91
6HR MIN TEMP:  84; 6HR MAX TEMP:  88;

CLINTON        LGT RAIN  82  77  83 W5        29.98R HX  91
$$

ARZ036-070100-
EAST ARKANSAS

CITY           SKY/WX    TMP DP  RH WIND       PRES   REMARKS
WEST MEMPHIS   MOSUNNY   82  75  79 S12       29.98F HX  89
6HR MIN TEMP:  81; 6HR MAX TEMP:  86;

$$

ARZ050-053-066-070-073-070100-
SOUTHWEST ARKANSAS

CITY           SKY/WX    TMP DP  RH WIND       PRES   REMARKS
ARKADELPHIA    FAIR      89  77  67 S7        29.94F HX 101
6HR MIN TEMP:  88; 6HR MAX TEMP:  91;

CAMDEN         MOSUNNY   86  73  66 MISG      29.95F HX  93
TEXARKANA      PTSUNNY   87  73  62 S9        29.93F HX  94
6HR MIN TEMP:  87; 6HR MAX TEMP:  91;

EL DORADO      MOSUNNY   86  74  67 S7        29.97F HX  94
6HR MIN TEMP:  86; 6HR MAX TEMP:  91;

DE QUEEN       MOSUNNY   86  73  65 SW7       29.89F HX  93
6HR MIN TEMP:  84; 6HR MAX TEMP:  89;

$$

ARZ056-057-069-070100-
SOUTHEAST ARKANSAS

CITY           SKY/WX    TMP DP  RH WIND       PRES   REMARKS
PINE BLUFF     MOSUNNY   84  75  74 S10       29.96F HX  92
6HR MIN TEMP:  84; 6HR MAX TEMP:  90;

STUTTGART      MOSUNNY   86  73  66 MISG      29.95S HX  93
MONTICELLO     MOSUNNY   87  77  72 S6        29.98F HX  99
6HR MIN TEMP:  85; 6HR MAX TEMP:  90;


$$




USA.gov is the U.S. government's official web portal to all federal, state and local government web resources and services.